EDW4K LSZH-KTPA

Flight info

Callsign EDW4K
Flight time N/A
Altitude 32000
Route VEBIT T10 TORPA DCT REKLA DCT RLP DCT ROTSI DCT KOTUN DCT AMAXA DCT VESAN DCT RATUK DCT SOVAT L613 SANDY DCT ODVIK DCT SAM/N0464F340 N19 ADKIK DCT FONZU DCT LESLU DCT BIBLA/M080F340 DCT DINIM/M080F350 DCT 52N020W 53N030W 53N040W 52N050W DCT TUDEP/N0450F360 N526A TOPPS DCT KAYCC DCT KYLOH DCT NELIE Q75 SACRI/N0454F380 Q75 TEUFL DCT BAAMF DADES2
Aircraft A343/H-SDE2E3FGHIJ4J5M1P2RWXYZ/LB1D1

Departure

Time 2026-04-26 16:24
Airport Zürich Airport (LSZH)

Arrival

Time N/A
Airport Tampa International Airport (KTPA)
Time Latitude Longitude Altitude Speed Heading
2026-04-26 15:45 47.46062 8.55337 1409 ft 0 kts
2026-04-26 16:13 47.46058 8.55337 1401 ft 3 kts
2026-04-26 16:13 47.46031 8.55332 1404 ft 4 kts
2026-04-26 16:13 47.46006 8.55328 1410 ft 4 kts
2026-04-26 16:14 47.45983 8.55333 1408 ft 4 kts 314°
2026-04-26 16:14 47.45973 8.55366 1411 ft 4 kts 274°
2026-04-26 16:14 47.45972 8.55410 1407 ft 0 kts 276°
2026-04-26 16:16 47.45972 8.55406 1408 ft 2 kts 276°
2026-04-26 16:16 47.45975 8.55360 1404 ft 7 kts 276°
2026-04-26 16:17 47.45982 8.55259 1404 ft 13 kts 276°
2026-04-26 16:17 47.45993 8.55105 1406 ft 17 kts 276°
2026-04-26 16:17 47.46026 8.54944 1405 ft 16 kts 324°
2026-04-26 16:17 47.46130 8.54865 1402 ft 17 kts 335°
2026-04-26 16:18 47.46238 8.54790 1401 ft 18 kts 334°
2026-04-26 16:18 47.46471 8.54628 1401 ft 18 kts 336°
2026-04-26 16:19 47.46690 8.54478 1384 ft 19 kts 335°
2026-04-26 16:19 47.46775 8.54429 1384 ft 21 kts 341°
2026-04-26 16:19 47.47029 8.54260 1384 ft 19 kts 335°
2026-04-26 16:20 47.47145 8.54181 1386 ft 18 kts 335°
2026-04-26 16:20 47.47376 8.54021 1403 ft 18 kts 335°
2026-04-26 16:20 47.47481 8.53949 1406 ft 16 kts 335°
2026-04-26 16:21 47.47572 8.53886 1408 ft 14 kts 335°
2026-04-26 16:21 47.47652 8.53831 1410 ft 9 kts 335°
2026-04-26 16:21 47.47699 8.53788 1410 ft 7 kts 312°
2026-04-26 16:21 47.47701 8.53735 1411 ft 6 kts 257°
2026-04-26 16:22 47.47668 8.53675 1412 ft 10 kts 210°
2026-04-26 16:22 47.47581 8.53624 1410 ft 16 kts 199°
2026-04-26 16:22 47.47479 8.53660 1408 ft 13 kts 154°
2026-04-26 16:22 47.47455 8.53676 1409 ft 2 kts 155°
2026-04-26 16:23 47.47317 8.53771 1405 ft 51 kts 155°
2026-04-26 16:23 47.46824 8.54109 1383 ft 104 kts 155°
2026-04-26 16:23 47.46032 8.54654 1398 ft 145 kts 155°
2026-04-26 16:23 47.45014 8.55352 1512 ft 171 kts 153°
2026-04-26 16:24 47.43949 8.56082 2135 ft 167 kts 150°
2026-04-26 16:24 47.43232 8.57369 2500 ft 170 kts 101°
2026-04-26 16:24 47.43492 8.59084 2770 ft 187 kts 51°
2026-04-26 16:24 47.44660 8.59973 3187 ft 203 kts
2026-04-26 16:25 47.46071 8.59420 3773 ft 220 kts 335°
2026-04-26 16:25 47.47328 8.58012 4375 ft 239 kts 311°
2026-04-26 16:25 47.47916 8.55690 5080 ft 251 kts 272°
2026-04-26 16:25 47.47468 8.53188 5851 ft 258 kts 238°
2026-04-26 16:26 47.46145 8.51368 6538 ft 267 kts 209°
2026-04-26 16:26 47.44632 8.49742 7175 ft 273 kts 232°
2026-04-26 16:26 47.43647 8.47348 8028 ft 274 kts 243°
2026-04-26 16:26 47.42771 8.44851 8884 ft 275 kts 242°
2026-04-26 16:27 47.41872 8.42354 9693 ft 277 kts 242°
2026-04-26 16:27 47.40945 8.39850 10475 ft 279 kts 241°
2026-04-26 16:27 47.39977 8.37283 10870 ft 295 kts 241°
2026-04-26 16:27 47.38943 8.34571 11160 ft 312 kts 241°
2026-04-26 16:28 47.37876 8.31675 11432 ft 329 kts 243°
2026-04-26 16:28 47.36805 8.28621 11832 ft 341 kts 243°
2026-04-26 16:28 47.35707 8.25495 12519 ft 344 kts 243°
2026-04-26 16:28 47.34613 8.22386 13184 ft 347 kts 244°
2026-04-26 16:29 47.33479 8.19182 13872 ft 351 kts 243°
2026-04-26 16:29 47.32338 8.15973 14471 ft 355 kts 243°
2026-04-26 16:29 47.31187 8.12736 15085 ft 358 kts 244°
2026-04-26 16:29 47.30030 8.09474 15733 ft 360 kts 244°
2026-04-26 16:30 47.28878 8.06239 16354 ft 364 kts 244°
2026-04-26 16:30 47.27785 8.02865 16923 ft 366 kts 251°
2026-04-26 16:30 47.27215 7.99213 17541 ft 367 kts 267°
2026-04-26 16:30 47.27247 7.95452 18177 ft 369 kts 275°
2026-04-26 16:31 47.27517 7.91696 18737 ft 371 kts 278°
2026-04-26 16:31 47.27900 7.87916 19264 ft 374 kts 279°
2026-04-26 16:31 47.28323 7.84119 19799 ft 377 kts 280°
2026-04-26 16:31 47.28746 7.80294 20323 ft 380 kts 279°
2026-04-26 16:32 47.29154 7.76435 20843 ft 382 kts 279°
2026-04-26 16:32 47.29420 7.73813 21194 ft 384 kts 279°
2026-04-26 16:32 47.29924 7.68634 21869 ft 388 kts 279°
2026-04-26 16:32 47.30325 7.64699 22377 ft 390 kts 282°
2026-04-26 16:33 47.30979 7.60810 22862 ft 392 kts 286°
2026-04-26 16:33 47.31743 7.56945 23351 ft 394 kts 287°
2026-04-26 16:33 47.32561 7.53073 23783 ft 397 kts 288°
2026-04-26 16:33 47.33409 7.49181 24177 ft 400 kts 288°
2026-04-26 16:34 47.34270 7.45269 24517 ft 403 kts 289°
2026-04-26 16:34 47.35139 7.41318 24884 ft 406 kts 289°
2026-04-26 16:34 47.36008 7.37344 25308 ft 407 kts 289°
2026-04-26 16:34 47.36871 7.33369 25748 ft 408 kts 289°
2026-04-26 16:35 47.37734 7.29373 26108 ft 410 kts 289°
2026-04-26 16:35 47.38597 7.25357 26457 ft 412 kts 289°
2026-04-26 16:35 47.39463 7.21318 26828 ft 413 kts 289°
2026-04-26 16:35 47.40325 7.17256 27189 ft 415 kts 288°
2026-04-26 16:36 47.41037 7.13114 27539 ft 418 kts 285°
2026-04-26 16:36 47.41692 7.08927 27878 ft 420 kts 284°
2026-04-26 16:36 47.42327 7.04702 28177 ft 423 kts 284°
2026-04-26 16:36 47.42951 7.00450 28486 ft 425 kts 284°
2026-04-26 16:37 47.43563 6.96234 28820 ft 426 kts 284°
2026-04-26 16:37 47.44184 6.91944 29134 ft 428 kts 284°
2026-04-26 16:37 47.44816 6.87581 29448 ft 430 kts 284°
2026-04-26 16:37 47.45231 6.84717 29647 ft 431 kts 284°
2026-04-26 16:38 47.46290 6.79007 30043 ft 432 kts 290°
2026-04-26 16:38 47.47317 6.74826 30324 ft 433 kts 292°
2026-04-26 16:38 47.48417 6.70675 30567 ft 435 kts 293°
2026-04-26 16:38 47.49557 6.66523 30783 ft 436 kts 294°
2026-04-26 16:39 47.50710 6.62370 30985 ft 439 kts 294°
2026-04-26 16:39 47.51856 6.58237 31205 ft 440 kts 294°
2026-04-26 16:39 47.53014 6.54034 31444 ft 442 kts 294°
2026-04-26 16:39 47.54169 6.49809 31679 ft 443 kts 293°
2026-04-26 16:40 47.55319 6.45577 31967 ft 443 kts 293°
2026-04-26 16:40 47.56465 6.41342 32132 ft 443 kts 293°
2026-04-26 16:40 47.58695 6.33055 32158 ft 426 kts 293°
2026-04-26 16:41 47.60881 6.24917 32154 ft 425 kts 294°
2026-04-26 16:41 47.63067 6.16761 32162 ft 426 kts 294°
2026-04-26 16:42 47.65246 6.08596 32154 ft 425 kts 294°
2026-04-26 16:42 47.67411 6.00455 32158 ft 424 kts 294°
2026-04-26 16:43 47.69571 5.92305 32159 ft 424 kts 294°
2026-04-26 16:43 47.71723 5.84153 32156 ft 424 kts 294°
2026-04-26 16:44 47.73872 5.75990 32158 ft 424 kts 294°
2026-04-26 16:44 47.76015 5.67815 32165 ft 424 kts 294°
2026-04-26 16:45 47.78152 5.59639 32161 ft 424 kts 294°
2026-04-26 16:45 47.80282 5.51458 32165 ft 424 kts 294°
2026-04-26 16:46 47.82408 5.43264 32165 ft 425 kts 294°
2026-04-26 16:46 47.84531 5.35055 32180 ft 425 kts 294°
2026-04-26 16:47 47.86645 5.26845 32170 ft 425 kts 294°
2026-04-26 16:47 47.88754 5.18630 32184 ft 425 kts 294°
2026-04-26 16:48 47.90843 5.10463 32172 ft 424 kts 293°
2026-04-26 16:48 47.92936 5.02248 32176 ft 424 kts 293°
2026-04-26 16:49 47.95024 4.94026 32172 ft 424 kts 293°
2026-04-26 16:49 47.97118 4.85749 32174 ft 424 kts 293°
2026-04-26 16:50 47.99178 4.77579 32159 ft 424 kts 293°